C/2016 T3 ( PanSTARRS )

Japanese version
Home page
Updated on January 17, 2017

---------------------------------------------------------------------

* Profile

Discovery Date October 10, 2016
Magnitude 20.1 mag
Discoverer Pan-STARRS 1 telescope (Haleakala)

* Pictures

* Orbital Elements

Epoch 2017 Sept. 4.0 TT = JDT 2458000.5
T 2017 Sept. 6.99216 TT                                 MPCW
q   2.6496509            (2000.0)            P               Q
z  +0.0071132      Peri.  194.67342     -0.26317230     -0.88445404
 +/-0.0000341      Node   271.75058     +0.91943806     -0.10896934
e   0.9811524      Incl.   22.67558     +0.29218828     -0.45372540
From 107 observations 2016 Oct. 10-Dec. 20, mean residual 0".4.

* Finding Charts

* Magnitudes Graph

        m1 = 10.2 + 5 log d + 10.0 log r

---------------------------------------------------------------------

The orbital elements are published on M.P.E.C. 2016-Y22.
The charts are made with StellaNavigator Ver.10 (AstroArts).
The magnitudes graphs are made with Comet for Windows.

---------------------------------------------------------------------

Copyright(C) Seiichi Yoshida (comet@aerith.net). All rights reserved.